Multibeam Report for AT26-13


Ship Name: Atlantis
Chief Scientist: Joye, Samantha
University of Georgia
Source Organization: UNOLS R2R
Start Date: 2014-03-30
End Date: 2014-04-22


View ISO Metadata

Visit the full NCEI Bathymetry Viewer


Multibeam Bathymetry

Cruise Details

Project: A Microbial Observatory at Seafloor Brine Seeps
Instrument: Kongsberg EM122

Data Quality

Number of Files: 168
Number of Records: 233353
BATHYMETRY DATA Quantity Percentage
Number of Beams 100805472 100%
Number of Good Beams 100384242 99.58%
Number of Zero Beams 0 0%
Number of Flagged Beams 421230 0.42%

Navigation Totals

Total Time: 121.1093 hours
Total Track Length: 1523.9493 km
Average Speed: 12.583 km/hr (6.7943 knots)

Cruise Bounds

Northern Extent: 29.904543
Southern Extent: 26.850662
Western Extent: -92.12944
Eastern Extent: -88.34077

Limits

Minimum Sonar Depth 4.4483 Maximum Sonar Depth 7.082
Minimum Altitude 27.2614 Maximum Altitude 2463.8005
Minimum Depth 30.9523 Maximum Depth 2927.2283

File Information

Full Resolution Bathymetry as collected (raw): 165

Files File Size Description
0000_20140331_041607_Atlantis.all.mb58.gz 53.97MB Kongsberg multibeam vendor format
0001_20140331_130932_Atlantis.all.mb58.gz 24.95MB Kongsberg multibeam vendor format
0002_20140331_132831_Atlantis.all.mb58.gz 6.72MB Kongsberg multibeam vendor format
0003_20140331_133327_Atlantis.all.mb58.gz 31.75MB Kongsberg multibeam vendor format
0004_20140401_024019_Atlantis.all.mb58.gz 28.20MB Kongsberg multibeam vendor format
0005_20140401_025650_Atlantis.all.mb58.gz 190.49MB Kongsberg multibeam vendor format
0006_20140401_045648_Atlantis.all.mb58.gz 69.81MB Kongsberg multibeam vendor format
0007_20140401_054941_Atlantis.all.mb58.gz 76.06MB Kongsberg multibeam vendor format
0008_20140401_100900_Atlantis.all.mb58.gz 40.28MB Kongsberg multibeam vendor format
0009_20140401_103535_Atlantis.all.mb58.gz 11.99MB Kongsberg multibeam vendor format
0010_20140401_104416_Atlantis.all.mb58.gz 57.29MB Kongsberg multibeam vendor format
0011_20140401_112644_Atlantis.all.mb58.gz 34.10MB Kongsberg multibeam vendor format
0012_20140401_222215_Atlantis.all.mb58.gz 85.11MB Kongsberg multibeam vendor format
0013_20140401_231955_Atlantis.all.mb58.gz 16.78MB Kongsberg multibeam vendor format
0014_20140401_232859_Atlantis.all.mb58.gz 7.81MB Kongsberg multibeam vendor format
0015_20140402_002836_Atlantis.all.mb58.gz 40.28MB Kongsberg multibeam vendor format
0016_20140402_005134_Atlantis.all.mb58.gz 37.08MB Kongsberg multibeam vendor format
0017_20140402_011308_Atlantis.all.mb58.gz 6.55MB Kongsberg multibeam vendor format
0018_20140402_012529_Atlantis.all.mb58.gz 127.91MB Kongsberg multibeam vendor format
0019_20140402_075622_Atlantis.all.mb58.gz 98.65MB Kongsberg multibeam vendor format
0020_20140402_090710_Atlantis.all.mb58.gz 23.81MB Kongsberg multibeam vendor format
0021_20140402_092453_Atlantis.all.mb58.gz 53.52MB Kongsberg multibeam vendor format
0022_20140402_100607_Atlantis.all.mb58.gz 1.97MB Kongsberg multibeam vendor format
0023_20140402_100740_Atlantis.all.mb58.gz 51.53MB Kongsberg multibeam vendor format
0024_20140402_104737_Atlantis.all.mb58.gz 9.44MB Kongsberg multibeam vendor format
0025_20140402_105444_Atlantis.all.mb58.gz 68.02MB Kongsberg multibeam vendor format
0026_20140402_114736_Atlantis.all.mb58.gz 6.20MB Kongsberg multibeam vendor format
0027_20140402_232619_Atlantis.all.mb58.gz 93.6KB Kongsberg multibeam vendor format
0028_20140402_232624_Atlantis.all.mb58.gz 103.65MB Kongsberg multibeam vendor format
0029_20140403_005135_Atlantis.all.mb58.gz 33.35MB Kongsberg multibeam vendor format
0030_20140403_011935_Atlantis.all.mb58.gz 113.17MB Kongsberg multibeam vendor format
0031_20140403_025437_Atlantis.all.mb58.gz 35.01MB Kongsberg multibeam vendor format
0032_20140403_032412_Atlantis.all.mb58.gz 127.45MB Kongsberg multibeam vendor format
0033_20140403_050358_Atlantis.all.mb58.gz 4.63MB Kongsberg multibeam vendor format
0034_20140403_050724_Atlantis.all.mb58.gz 162.68MB Kongsberg multibeam vendor format
0035_20140403_070720_Atlantis.all.mb58.gz 164.38MB Kongsberg multibeam vendor format
0036_20140403_090717_Atlantis.all.mb58.gz 57.90MB Kongsberg multibeam vendor format
0037_20140403_094931_Atlantis.all.mb58.gz 164.63MB Kongsberg multibeam vendor format
0038_20140403_114927_Atlantis.all.mb58.gz 79.16MB Kongsberg multibeam vendor format
0039_20140403_223225_Atlantis.all.mb58.gz 3.08MB Kongsberg multibeam vendor format
0040_20140404_064342_Atlantis.all.mb58.gz 62.95MB Kongsberg multibeam vendor format
0041_20140404_065906_Atlantis.all.mb58.gz 208.62MB Kongsberg multibeam vendor format
0042_20140404_080430_Atlantis.all.mb58.gz 221.44MB Kongsberg multibeam vendor format
0043_20140404_095811_Atlantis.all.mb58.gz 162.16MB Kongsberg multibeam vendor format
0044_20140404_115814_Atlantis.all.mb58.gz 6.48MB Kongsberg multibeam vendor format
0045_20140405_002349_Atlantis.all.mb58.gz 49.93MB Kongsberg multibeam vendor format
0046_20140405_010031_Atlantis.all.mb58.gz 23.00MB Kongsberg multibeam vendor format
0047_20140405_011722_Atlantis.all.mb58.gz 38.42MB Kongsberg multibeam vendor format
0048_20140405_014530_Atlantis.all.mb58.gz 8.50MB Kongsberg multibeam vendor format
0049_20140405_015145_Atlantis.all.mb58.gz 49.36MB Kongsberg multibeam vendor format
0050_20140405_022804_Atlantis.all.mb58.gz 8.74MB Kongsberg multibeam vendor format
0051_20140405_023424_Atlantis.all.mb58.gz 28.59MB Kongsberg multibeam vendor format
0052_20140405_025545_Atlantis.all.mb58.gz 7.50MB Kongsberg multibeam vendor format
0053_20140405_030113_Atlantis.all.mb58.gz 29.94MB Kongsberg multibeam vendor format
0054_20140405_032259_Atlantis.all.mb58.gz 6.92MB Kongsberg multibeam vendor format
0055_20140405_032756_Atlantis.all.mb58.gz 24.07MB Kongsberg multibeam vendor format
0056_20140405_034519_Atlantis.all.mb58.gz 8.62MB Kongsberg multibeam vendor format
0057_20140405_035135_Atlantis.all.mb58.gz 12.46MB Kongsberg multibeam vendor format
0058_20140405_040026_Atlantis.all.mb58.gz 164.89MB Kongsberg multibeam vendor format
0059_20140405_060025_Atlantis.all.mb58.gz 48.59MB Kongsberg multibeam vendor format
0060_20140405_064332_Atlantis.all.mb58.gz 141.0KB Kongsberg multibeam vendor format
0061_20140405_231631_Atlantis.all.mb58.gz 28.32MB Kongsberg multibeam vendor format
0062_20140405_233710_Atlantis.all.mb58.gz 39.94MB Kongsberg multibeam vendor format
0063_20140406_060908_Atlantis.all.mb58.gz 96.78MB Kongsberg multibeam vendor format
0064_20140406_074909_Atlantis.all.mb58.gz 46.66MB Kongsberg multibeam vendor format
0065_20140406_082324_Atlantis.all.mb58.gz 25.45MB Kongsberg multibeam vendor format
0066_20140406_084443_Atlantis.all.mb58.gz 76.60MB Kongsberg multibeam vendor format
0067_20140406_094103_Atlantis.all.mb58.gz 58.11MB Kongsberg multibeam vendor format
0068_20140406_102429_Atlantis.all.mb58.gz 50.72MB Kongsberg multibeam vendor format
0069_20140406_214440_Atlantis.all.mb58.gz 161.40MB Kongsberg multibeam vendor format
0070_20140406_234440_Atlantis.all.mb58.gz 123.35MB Kongsberg multibeam vendor format
0071_20140407_053900_Atlantis.all.mb58.gz 147.28MB Kongsberg multibeam vendor format
0072_20140407_072344_Atlantis.all.mb58.gz 101.82MB Kongsberg multibeam vendor format
0073_20140407_083715_Atlantis.all.mb58.gz 85.22MB Kongsberg multibeam vendor format
0074_20140407_094009_Atlantis.all.mb58.gz 44.22MB Kongsberg multibeam vendor format
0076_20140407_101210_Atlantis.all.mb58.gz 47.62MB Kongsberg multibeam vendor format
0077_20140407_104641_Atlantis.all.mb58.gz 78.55MB Kongsberg multibeam vendor format
0078_20140407_114417_Atlantis.all.mb58.gz 117.84MB Kongsberg multibeam vendor format
0079_20140407_212357_Atlantis.all.mb58.gz 164.02MB Kongsberg multibeam vendor format
0080_20140407_232359_Atlantis.all.mb58.gz 125.73MB Kongsberg multibeam vendor format
0081_20140408_041959_Atlantis.all.mb58.gz 164.32MB Kongsberg multibeam vendor format
0082_20140408_062001_Atlantis.all.mb58.gz 125.92MB Kongsberg multibeam vendor format
0083_20140408_081957_Atlantis.all.mb58.gz 10.04MB Kongsberg multibeam vendor format
0084_20140408_082721_Atlantis.all.mb58.gz 117.95MB Kongsberg multibeam vendor format
0085_20140408_095414_Atlantis.all.mb58.gz 127.06MB Kongsberg multibeam vendor format
0086_20140408_112824_Atlantis.all.mb58.gz 117.96MB Kongsberg multibeam vendor format
0087_20140408_125600_Atlantis.all.mb58.gz 3.42MB Kongsberg multibeam vendor format
0088_20140408_125831_Atlantis.all.mb58.gz 164.42MB Kongsberg multibeam vendor format
0090_20140408_174935_Atlantis.all.mb58.gz 46.87MB Kongsberg multibeam vendor format
0091_20140408_182322_Atlantis.all.mb58.gz 79.94MB Kongsberg multibeam vendor format
0092_20140408_192026_Atlantis.all.mb58.gz 143.97MB Kongsberg multibeam vendor format
0093_20140410_012049_Atlantis.all.mb58.gz 56.96MB Kongsberg multibeam vendor format
0094_20140410_051523_Atlantis.all.mb58.gz 13.63MB Kongsberg multibeam vendor format
0095_20140410_054135_Atlantis.all.mb58.gz 85.7KB Kongsberg multibeam vendor format
0096_20140410_072205_Atlantis.all.mb58.gz 57.84MB Kongsberg multibeam vendor format
0097_20140410_104231_Atlantis.all.mb58.gz 7.95MB Kongsberg multibeam vendor format
0098_20140410_104820_Atlantis.all.mb58.gz 63.46MB Kongsberg multibeam vendor format
0099_20140410_113523_Atlantis.all.mb58.gz 145.91MB Kongsberg multibeam vendor format
0100_20140410_204650_Atlantis.all.mb58.gz 23.87MB Kongsberg multibeam vendor format
0101_20140410_210444_Atlantis.all.mb58.gz 71.86MB Kongsberg multibeam vendor format
0102_20140410_214855_Atlantis.all.mb58.gz 78.82MB Kongsberg multibeam vendor format
0103_20140410_223551_Atlantis.all.mb58.gz 10.57MB Kongsberg multibeam vendor format
0104_20140410_224344_Atlantis.all.mb58.gz 76.12MB Kongsberg multibeam vendor format
0105_20140410_232838_Atlantis.all.mb58.gz 10.45MB Kongsberg multibeam vendor format
0106_20140410_233444_Atlantis.all.mb58.gz 71.21MB Kongsberg multibeam vendor format
0107_20140411_001707_Atlantis.all.mb58.gz 7.01MB Kongsberg multibeam vendor format
0108_20140411_002221_Atlantis.all.mb58.gz 81.13MB Kongsberg multibeam vendor format
0110_20140411_011140_Atlantis.all.mb58.gz 8.68MB Kongsberg multibeam vendor format
0111_20140411_011813_Atlantis.all.mb58.gz 78.64MB Kongsberg multibeam vendor format
0112_20140411_020716_Atlantis.all.mb58.gz 4.97MB Kongsberg multibeam vendor format
0113_20140411_021056_Atlantis.all.mb58.gz 76.31MB Kongsberg multibeam vendor format
0114_20140411_030141_Atlantis.all.mb58.gz 74.28MB Kongsberg multibeam vendor format
0115_20140413_063129_Atlantis.all.mb58.gz 158.58MB Kongsberg multibeam vendor format
0116_20140413_083132_Atlantis.all.mb58.gz 10.37MB Kongsberg multibeam vendor format
0117_20140413_084019_Atlantis.all.mb58.gz 144.11MB Kongsberg multibeam vendor format
0118_20140413_104011_Atlantis.all.mb58.gz 54.83MB Kongsberg multibeam vendor format
0119_20140413_220523_Atlantis.all.mb58.gz 9.80MB Kongsberg multibeam vendor format
0120_20140413_221417_Atlantis.all.mb58.gz 33.98MB Kongsberg multibeam vendor format
0121_20140413_224327_Atlantis.all.mb58.gz 21.07MB Kongsberg multibeam vendor format
0122_20140413_230043_Atlantis.all.mb58.gz 53.36MB Kongsberg multibeam vendor format
0123_20140413_234758_Atlantis.all.mb58.gz 10.64MB Kongsberg multibeam vendor format
0124_20140414_000333_Atlantis.all.mb58.gz 24.47MB Kongsberg multibeam vendor format
0125_20140414_004101_Atlantis.all.mb58.gz 24.08MB Kongsberg multibeam vendor format
0126_20140414_010938_Atlantis.all.mb58.gz 0.77MB Kongsberg multibeam vendor format
0127_20140414_011029_Atlantis.all.mb58.gz 14.20MB Kongsberg multibeam vendor format
0128_20140414_012626_Atlantis.all.mb58.gz 31.84MB Kongsberg multibeam vendor format
0129_20140414_020252_Atlantis.all.mb58.gz 36.63MB Kongsberg multibeam vendor format
0130_20140414_024339_Atlantis.all.mb58.gz 3.23MB Kongsberg multibeam vendor format
0131_20140414_024700_Atlantis.all.mb58.gz 40.30MB Kongsberg multibeam vendor format
0132_20140414_180958_Atlantis.all.mb58.gz 115.02MB Kongsberg multibeam vendor format
0133_20140414_200958_Atlantis.all.mb58.gz 7.42MB Kongsberg multibeam vendor format
0134_20140414_201814_Atlantis.all.mb58.gz 44.71MB Kongsberg multibeam vendor format
0135_20140414_210725_Atlantis.all.mb58.gz 54.63MB Kongsberg multibeam vendor format
0136_20140416_100840_Atlantis.all.mb58.gz 22.71MB Kongsberg multibeam vendor format
0137_20140416_103320_Atlantis.all.mb58.gz 4.49MB Kongsberg multibeam vendor format
0138_20140416_103816_Atlantis.all.mb58.gz 38.33MB Kongsberg multibeam vendor format
0139_20140417_084223_Atlantis.all.mb58.gz 30.94MB Kongsberg multibeam vendor format
0140_20140417_091652_Atlantis.all.mb58.gz 17.84MB Kongsberg multibeam vendor format
0141_20140417_093534_Atlantis.all.mb58.gz 29.41MB Kongsberg multibeam vendor format
0142_20140417_100856_Atlantis.all.mb58.gz 54.41MB Kongsberg multibeam vendor format
0143_20140417_110942_Atlantis.all.mb58.gz 82.01MB Kongsberg multibeam vendor format
0144_20140418_205446_Atlantis.all.mb58.gz 103.01MB Kongsberg multibeam vendor format
0145_20140418_225443_Atlantis.all.mb58.gz 49.76MB Kongsberg multibeam vendor format
0146_20140418_235222_Atlantis.all.mb58.gz 24.53MB Kongsberg multibeam vendor format
0147_20140419_082821_Atlantis.all.mb58.gz 41.5KB Kongsberg multibeam vendor format
0148_20140419_083531_Atlantis.all.mb58.gz 2.13MB Kongsberg multibeam vendor format
0149_20140419_083801_Atlantis.all.mb58.gz 22.93MB Kongsberg multibeam vendor format
0150_20140419_090313_Atlantis.all.mb58.gz 4.72MB Kongsberg multibeam vendor format
0151_20140419_090813_Atlantis.all.mb58.gz 13.86MB Kongsberg multibeam vendor format
0152_20140419_092253_Atlantis.all.mb58.gz 69.79MB Kongsberg multibeam vendor format
0153_20140419_104121_Atlantis.all.mb58.gz 13.62MB Kongsberg multibeam vendor format
0154_20140419_105605_Atlantis.all.mb58.gz 23.38MB Kongsberg multibeam vendor format
0155_20140419_112208_Atlantis.all.mb58.gz 28.18MB Kongsberg multibeam vendor format
0156_20140420_070356_Atlantis.all.mb58.gz 35.64MB Kongsberg multibeam vendor format
0157_20140420_074304_Atlantis.all.mb58.gz 27.36MB Kongsberg multibeam vendor format
0158_20140420_081226_Atlantis.all.mb58.gz 112.77MB Kongsberg multibeam vendor format
0159_20140420_101018_Atlantis.all.mb58.gz 5.05MB Kongsberg multibeam vendor format
0160_20140420_101540_Atlantis.all.mb58.gz 86.84MB Kongsberg multibeam vendor format
0161_20140420_212432_Atlantis.all.mb58.gz 63.45MB Kongsberg multibeam vendor format
0162_20140420_235036_Atlantis.all.mb58.gz 41.29MB Kongsberg multibeam vendor format
0163_20140421_055101_Atlantis.all.mb58.gz 112.89MB Kongsberg multibeam vendor format
0164_20140421_075101_Atlantis.all.mb58.gz 64.73MB Kongsberg multibeam vendor format
0165_20140421_085958_Atlantis.all.mb58.gz 104.82MB Kongsberg multibeam vendor format
0166_20140422_030647_Atlantis.all.mb58.gz 115.3KB Kongsberg multibeam vendor format
9999.all.mb58.gz 10.61MB Kongsberg multibeam vendor format

Metadata Files: 2

Files File Size Description
AT26-13_Multibeam.xml NGDC created ISO metadata
em122_bag_info.tar.gz 14.5KB Additional cruise information

Water Column Sonar Data

Water Column Sonar Data Available: WCSD Map Viewer